Location: Newark
(15.4608°S, 41.1635°W)
Time: 00:27:17
(UTC+00:00)

Vanguard 3 - Pass Details

Date: 08 August 2021
Orbit: 510 x 3260 km, 33.3° (Epoch: 20 September)

Event Time Altitude Azimuth Distance (km) Brightness Sun altitude
Exits shadow 09:02:39 - 238° (WSW) 4,238 10.2 -1.4°
Rises 09:02:39 0° 238° (WSW) 4,238 10.2 -1.4°
Reaches altitude 10° 09:08:15 10° 208° (SSW) 2,625 9.4 -0.1°
Maximum altitude 09:10:21 12° 188° (S) 2,281 9.2 0.4°
Drops below altitude 10° 09:12:11 10° 166° (SSE) 2,223 9.4 0.8°
Sets 09:15:52 0° 131° (SE) 2,830 10.4 1.7°
